Location: Nederland
(52.1000°N, 5.2000°E)
Time: 01:14:14
(UTC+02:00)

FENGYUN 1C DEB - Visible Passes

Search period start: 11 August 2022 00:00
Search period end: 21 August 2022 00:00
Orbit: 794 x 850 km, 98.6° (Epoch: 08 August)

Date Brightness Start Highest point End Pass type
(mag) Time Alt. Az. Time Alt. Az. Time Alt. Az.
11 Aug ? 23:14:31 10° W 23:15:08 10° W 23:15:46 10° WNW visible
12 Aug ? 22:51:30 10° WSW 22:54:32 15° W 22:57:37 10° NW visible
13 Aug ? 22:29:58 10° SW 22:34:01 22° W 22:38:07 10° NW visible
14 Aug ? 22:08:55 10° SSW 22:13:33 31° W 22:18:17 10° NNW visible
15 Aug ? 21:48:08 10° S 21:53:09 43° W 21:58:18 10° NNW visible
16 Aug ? 21:27:34 10° S 21:32:49 62° WSW 21:38:10 10° NNW visible
16 Aug ? 23:13:05 10° W 23:14:06 10° W 23:15:08 10° WNW visible
17 Aug ? 22:50:22 10° WSW 22:53:30 16° W 22:56:41 10° NW visible
18 Aug ? 22:28:52 10° SW 22:32:58 22° W 22:37:09 10° NW visible
19 Aug ? 22:07:48 10° SSW 22:12:30 31° W 22:17:18 10° NNW visible
20 Aug ? 21:47:02 10° S 21:52:06 44° W 21:57:17 10° NNW visible
